Change the Weather History Date:

Friday, May 24, 2013

  Actual Average Record
Temperature  
Mean Temperature 60 °F -  
Max Temperature 71 °F 77 °F 92 °F (1921)
Min Temperature 50 °F 55 °F 36 °F (1961)
Degree Days  
Heating Degree Days 5    
Growing Degree Days 10 (Base 50)    
Moisture  
Dew Point 43 °F    
Average Humidity 62    
Maximum Humidity 96    
Minimum Humidity 28    
Precipitation  
Precipitation 0.00 in - - ()
Sea Level Pressure  
Sea Level Pressure 30.28 in    
Wind  
Wind Speed 4 mph (ESE)    
Max Wind Speed 13 mph    
Max Gust Speed 22 mph    
Visibility 9 miles    
Events      
Averages and records for this station are not official NWS values.
T = Trace of Precipitation, MM = Missing Value Source: NWS Daily Summary

Daily Weather History Graph

Daily Weather History Graph

Search for Another Location

Airport or City:

Trip Planner

Search our weather history database for the weather conditions in past years. The results will help you decide how hot, cold, wet, or windy it might be!

Date:

Astronomy

May. 24, 2013 Rise Set
Actual Time 5:49 AM CDT 8:21 PM CDT
Civil Twilight 5:19 AM CDT 8:52 PM CDT
Nautical Twilight 4:41 AM CDT 9:30 PM CDT
Astronomical Twilight 3:59 AM CDT 10:12 PM CDT
Moon 8:04 PM CDT (5/24) 5:21 AM CDT (5/24)
Length of Visible Light 15h 32m
Length of Day
14h 31m
Full, 100% of the Moon is Illuminated
May 24
Full
May 24
Full
May 31
Last Quarter
Jun 8
New
Jun 16
First Quarter

Hourly Weather History & Observations

Time (CDT) Temp. Dew Point Humidity Pressure Visibility Wind Dir Wind Speed Gust Speed Precip Events Conditions
12:53 AM 51.1 °F 48.0 °F 89% 30.20 in 10.0 mi Calm Calm - N/A   Clear
1:53 AM 51.1 °F 48.0 °F 89% 30.21 in 10.0 mi Calm Calm - N/A   Clear
2:53 AM 52.0 °F 50.0 °F 93% 30.23 in 10.0 mi SE 3.5 mph - N/A   Clear
3:50 AM 51.8 °F 50.0 °F 94% 30.28 in 1.5 mi Calm Calm - N/A   Clear
3:53 AM 51.1 °F 50.0 °F 96% 30.26 in 0.8 mi Calm Calm - N/A   Clear
4:03 AM 50.0 °F 48.2 °F 94% 30.29 in 2.0 mi Calm Calm - N/A   Clear
4:10 AM 50.0 °F 48.2 °F 94% 30.29 in 4.0 mi East 3.5 mph - N/A   Clear
4:53 AM 51.1 °F 48.0 °F 89% 30.28 in 10.0 mi ESE 3.5 mph - N/A   Clear
5:53 AM 52.0 °F 48.9 °F 89% 30.29 in 10.0 mi East 3.5 mph - N/A   Clear
6:53 AM 52.0 °F 48.9 °F 89% 30.33 in 10.0 mi SE 4.6 mph - N/A   Clear
7:53 AM 54.0 °F 50.0 °F 86% 30.35 in 10.0 mi ESE 8.1 mph - N/A   Clear
8:19 AM 55.4 °F 50.0 °F 82% 30.39 in 10.0 mi ESE 6.9 mph - N/A   Partly Cloudy
8:53 AM 55.9 °F 46.0 °F 69% 30.36 in 10.0 mi ESE 11.5 mph - N/A   Partly Cloudy
9:53 AM 59.0 °F 42.1 °F 53% 30.37 in 10.0 mi SE 10.4 mph - N/A   Clear
10:53 AM 61.0 °F 41.0 °F 48% 30.36 in 10.0 mi ESE 12.7 mph - N/A   Clear
11:53 AM 62.1 °F 39.9 °F 44% 30.36 in 10.0 mi East 9.2 mph - N/A   Clear
12:53 PM 64.0 °F 37.9 °F 38% 30.35 in 10.0 mi ESE 9.2 mph 16.1 mph N/A   Clear
1:53 PM 66.9 °F 35.1 °F 31% 30.29 in 10.0 mi ESE 12.7 mph 19.6 mph N/A   Clear
2:53 PM 68.0 °F 35.1 °F 30% 30.28 in 10.0 mi ESE 10.4 mph 19.6 mph 0.00 in   Clear
3:53 PM 70.0 °F 35.1 °F 28% 30.27 in 10.0 mi ESE 12.7 mph 21.9 mph N/A   Clear
4:53 PM 70.0 °F 37.0 °F 30% 30.25 in 10.0 mi SE 9.2 mph - N/A   Clear
5:53 PM 70.0 °F 36.0 °F 29% 30.22 in 10.0 mi SE 6.9 mph - N/A   Clear
6:53 PM 70.0 °F 37.9 °F 31% 30.19 in 10.0 mi ESE 10.4 mph - N/A   Clear
7:53 PM 68.0 °F 37.0 °F 32% 30.19 in 10.0 mi East 5.8 mph - N/A   Clear
8:53 PM 64.0 °F 39.0 °F 40% 30.19 in 10.0 mi ESE 6.9 mph - N/A   Clear
9:53 PM 61.0 °F 39.9 °F 46% 30.22 in 10.0 mi East 4.6 mph - N/A   Clear
10:53 PM 60.1 °F 39.0 °F 46% 30.22 in 10.0 mi ESE 8.1 mph - N/A   Clear
11:53 PM 57.0 °F 41.0 °F 55% 30.22 in 10.0 mi ESE 8.1 mph - N/A   Clear